Time,TemperatureF,DewpointF,PressureIn,WindDirection,WindDirectionDegrees,WindSpeedMPH,WindSpeedGustMPH,Humidity,HourlyPrecipIn,Conditions,Clouds,dailyrainin,SoftwareType,DateUTC
2013-03-03 00:02:00,30.0,27.0,-100.00,North,-999,0.0,-999.0,89,0.01,,,0.02,,2013-03-03 05:02:00,
2013-03-03 00:12:00,30.0,27.0,-100.00,North,-999,0.0,-999.0,89,0.01,,,0.02,,2013-03-03 05:12:00,
2013-03-03 00:22:00,30.0,27.0,-100.00,North,-999,0.0,-999.0,89,0.01,,,0.02,,2013-03-03 05:22:00,
2013-03-03 00:32:00,30.0,27.0,-100.00,North,-999,0.0,-999.0,89,0.01,,,0.02,,2013-03-03 05:32:00,
2013-03-03 00:42:00,30.0,27.0,-100.00,North,-999,0.0,-999.0,89,0.01,,,0.02,,2013-03-03 05:42:00,
2013-03-03 01:02:00,30.0,27.0,-100.00,North,1,0.0,-999.0,89,0.01,,,0.03,,2013-03-03 06:02:00,
2013-03-03 01:11:00,30.0,27.0,-100.00,North,1,0.0,-999.0,89,0.01,,,0.03,,2013-03-03 06:11:00,
2013-03-03 01:22:00,30.0,27.0,-100.00,North,1,0.0,-999.0,89,0.01,,,0.03,,2013-03-03 06:22:00,
2013-03-03 01:32:00,30.0,27.0,-100.00,North,1,0.0,-999.0,89,0.01,,,0.03,,2013-03-03 06:32:00,
2013-03-03 01:42:00,30.0,27.0,-100.00,North,1,0.0,-999.0,89,0.01,,,0.03,,2013-03-03 06:42:00,
2013-03-03 02:01:00,29.0,26.0,-100.00,North,1,0.0,-999.0,89,0.01,,,0.04,,2013-03-03 07:01:00,
2013-03-03 02:11:00,29.0,26.0,-100.00,North,1,0.0,-999.0,89,0.01,,,0.04,,2013-03-03 07:11:00,
2013-03-03 02:21:00,29.0,26.0,-100.00,North,1,0.0,-999.0,89,0.01,,,0.04,,2013-03-03 07:21:00,
2013-03-03 02:32:00,29.0,26.0,-100.00,North,1,0.0,-999.0,89,0.01,,,0.04,,2013-03-03 07:32:00,
2013-03-03 02:42:00,29.0,26.0,-100.00,North,1,0.0,-999.0,89,0.01,,,0.04,,2013-03-03 07:42:00,
2013-03-03 03:01:00,29.0,26.0,-100.00,North,1,0.0,-999.0,88,0.01,,,0.05,,2013-03-03 08:01:00,
2013-03-03 03:11:00,29.0,26.0,-100.00,North,1,0.0,-999.0,88,0.01,,,0.05,,2013-03-03 08:11:00,
2013-03-03 03:21:00,29.0,26.0,-100.00,North,1,0.0,-999.0,88,0.01,,,0.05,,2013-03-03 08:21:00,
2013-03-03 03:32:00,29.0,26.0,-100.00,North,1,0.0,-999.0,88,0.01,,,0.05,,2013-03-03 08:32:00,
2013-03-03 03:42:00,29.0,26.0,-100.00,North,1,0.0,-999.0,88,0.01,,,0.05,,2013-03-03 08:42:00,
2013-03-03 04:02:00,29.0,26.0,-100.00,North,-999,0.0,-999.0,87,0.00,,,0.05,,2013-03-03 09:02:00,
2013-03-03 04:12:00,29.0,26.0,-100.00,North,-999,0.0,-999.0,87,0.00,,,0.05,,2013-03-03 09:12:00,
2013-03-03 04:21:00,29.0,26.0,-100.00,North,-999,0.0,-999.0,87,0.00,,,0.05,,2013-03-03 09:21:00,
2013-03-03 04:32:00,29.0,26.0,-100.00,North,-999,0.0,-999.0,87,0.00,,,0.05,,2013-03-03 09:32:00,
2013-03-03 04:42:00,29.0,26.0,-100.00,North,-999,0.0,-999.0,87,0.00,,,0.05,,2013-03-03 09:42:00,
2013-03-03 05:01:00,29.0,25.0,-100.00,North,1,0.0,-999.0,86,0.00,,,0.05,,2013-03-03 10:01:00,
2013-03-03 05:12:00,29.0,25.0,-100.00,North,1,0.0,-999.0,86,0.00,,,0.05,,2013-03-03 10:12:00,
2013-03-03 05:21:00,29.0,25.0,-100.00,North,1,0.0,-999.0,86,0.00,,,0.05,,2013-03-03 10:21:00,
2013-03-03 05:32:00,29.0,25.0,-100.00,North,1,0.0,-999.0,86,0.00,,,0.05,,2013-03-03 10:32:00,
2013-03-03 05:42:00,29.0,25.0,-100.00,North,1,0.0,-999.0,86,0.00,,,0.05,,2013-03-03 10:42:00,
2013-03-03 06:02:00,29.0,25.0,-100.00,North,2,0.0,-999.0,86,0.01,,,0.06,,2013-03-03 11:02:00,
2013-03-03 06:11:00,29.0,25.0,-100.00,North,2,0.0,-999.0,86,0.01,,,0.06,,2013-03-03 11:11:00,
2013-03-03 06:22:00,29.0,25.0,-100.00,North,2,0.0,-999.0,86,0.01,,,0.06,,2013-03-03 11:22:00,
2013-03-03 06:32:00,29.0,25.0,-100.00,North,2,0.0,-999.0,86,0.01,,,0.06,,2013-03-03 11:32:00,
2013-03-03 06:42:00,29.0,25.0,-100.00,North,2,0.0,-999.0,86,0.01,,,0.06,,2013-03-03 11:42:00,
2013-03-03 07:02:00,29.0,25.0,-100.00,North,1,0.0,-999.0,86,0.00,,,0.06,,2013-03-03 12:02:00,
2013-03-03 07:11:00,29.0,25.0,-100.00,North,1,0.0,-999.0,86,0.00,,,0.06,,2013-03-03 12:11:00,
2013-03-03 07:22:00,29.0,25.0,-100.00,North,1,0.0,-999.0,86,0.00,,,0.06,,2013-03-03 12:22:00,
2013-03-03 07:32:00,29.0,25.0,-100.00,North,1,0.0,-999.0,86,0.00,,,0.06,,2013-03-03 12:32:00,
2013-03-03 07:43:00,29.0,25.0,-100.00,North,1,0.0,-999.0,86,0.00,,,0.06,,2013-03-03 12:43:00,
2013-03-03 08:02:00,29.0,25.0,-100.00,North,1,0.0,-999.0,85,0.01,,,0.07,,2013-03-03 13:02:00,
2013-03-03 08:11:00,29.0,25.0,-100.00,North,1,0.0,-999.0,85,0.01,,,0.07,,2013-03-03 13:11:00,
2013-03-03 08:22:00,29.0,25.0,-100.00,North,1,0.0,-999.0,85,0.01,,,0.07,,2013-03-03 13:22:00,
2013-03-03 08:32:00,29.0,25.0,-100.00,North,1,0.0,-999.0,85,0.01,,,0.07,,2013-03-03 13:32:00,
2013-03-03 08:42:00,29.0,25.0,-100.00,North,1,0.0,-999.0,85,0.01,,,0.07,,2013-03-03 13:42:00,
2013-03-03 10:02:00,33.0,26.0,-100.00,North,2,0.0,-999.0,75,-99.99,,,0.07,,2013-03-03 15:02:00,
2013-03-03 10:11:00,33.0,26.0,-100.00,North,2,0.0,-999.0,75,-99.99,,,0.07,,2013-03-03 15:11:00,
2013-03-03 10:22:00,33.0,26.0,-100.00,North,2,0.0,-999.0,75,-99.99,,,0.07,,2013-03-03 15:22:00,
2013-03-03 10:32:00,33.0,26.0,-100.00,North,2,0.0,-999.0,75,-99.99,,,0.07,,2013-03-03 15:32:00,
2013-03-03 10:42:00,33.0,26.0,-100.00,North,2,0.0,-999.0,75,-99.99,,,0.07,,2013-03-03 15:42:00,
2013-03-03 11:02:00,34.0,27.0,-100.00,North,4,0.0,-999.0,74,0.00,,,0.07,,2013-03-03 16:02:00,
2013-03-03 11:12:00,34.0,27.0,-100.00,North,4,0.0,-999.0,74,0.00,,,0.07,,2013-03-03 16:12:00,
2013-03-03 11:22:00,34.0,27.0,-100.00,North,4,0.0,-999.0,74,0.00,,,0.07,,2013-03-03 16:22:00,
2013-03-03 11:32:00,34.0,27.0,-100.00,North,4,0.0,-999.0,74,0.00,,,0.07,,2013-03-03 16:32:00,
2013-03-03 11:42:00,34.0,27.0,-100.00,North,4,0.0,-999.0,74,0.00,,,0.07,,2013-03-03 16:42:00,
2013-03-03 12:01:00,36.0,27.0,-100.00,North,1,0.0,-999.0,68,0.00,,,0.07,,2013-03-03 17:01:00,
2013-03-03 12:12:00,36.0,27.0,-100.00,North,1,0.0,-999.0,68,0.00,,,0.07,,2013-03-03 17:12:00,
2013-03-03 12:22:00,36.0,27.0,-100.00,North,1,0.0,-999.0,68,0.00,,,0.07,,2013-03-03 17:22:00,
2013-03-03 12:32:00,36.0,27.0,-100.00,North,1,0.0,-999.0,68,0.00,,,0.07,,2013-03-03 17:32:00,
2013-03-03 12:42:00,36.0,27.0,-100.00,North,1,0.0,-999.0,68,0.00,,,0.07,,2013-03-03 17:42:00,
2013-03-03 13:02:00,40.0,27.0,-100.00,North,1,0.0,-999.0,59,0.00,,,0.07,,2013-03-03 18:02:00,
2013-03-03 13:11:00,40.0,27.0,-100.00,North,1,0.0,-999.0,59,0.00,,,0.07,,2013-03-03 18:11:00,
2013-03-03 13:22:00,40.0,27.0,-100.00,North,1,0.0,-999.0,59,0.00,,,0.07,,2013-03-03 18:22:00,
2013-03-03 13:32:00,40.0,27.0,-100.00,North,1,0.0,-999.0,59,0.00,,,0.07,,2013-03-03 18:32:00,
2013-03-03 13:42:00,40.0,27.0,-100.00,North,1,0.0,-999.0,59,0.00,,,0.07,,2013-03-03 18:42:00,
2013-03-03 15:02:00,39.0,26.0,-100.00,North,-999,0.0,-999.0,58,-99.99,,,-99.99,,2013-03-03 20:02:00,
2013-03-03 15:12:00,39.0,26.0,-100.00,North,-999,0.0,-999.0,58,-99.99,,,-99.99,,2013-03-03 20:12:00,
2013-03-03 15:22:00,39.0,26.0,-100.00,North,-999,0.0,-999.0,58,-99.99,,,-99.99,,2013-03-03 20:22:00,
2013-03-03 15:32:00,39.0,26.0,-100.00,North,-999,0.0,-999.0,58,-99.99,,,-99.99,,2013-03-03 20:32:00,
2013-03-03 15:42:00,39.0,26.0,-100.00,North,-999,0.0,-999.0,58,-99.99,,,-99.99,,2013-03-03 20:42:00,
2013-03-03 16:02:00,39.0,26.0,-100.00,North,5,0.0,-999.0,59,0.00,,,-99.99,,2013-03-03 21:02:00,
2013-03-03 16:12:00,39.0,26.0,-100.00,North,5,0.0,-999.0,59,0.00,,,-99.99,,2013-03-03 21:12:00,
2013-03-03 16:22:00,39.0,26.0,-100.00,North,5,0.0,-999.0,59,0.00,,,-99.99,,2013-03-03 21:22:00,
2013-03-03 16:32:00,39.0,26.0,-100.00,North,5,0.0,-999.0,59,0.00,,,-99.99,,2013-03-03 21:32:00,
2013-03-03 16:42:00,39.0,26.0,-100.00,North,5,0.0,-999.0,59,0.00,,,-99.99,,2013-03-03 21:42:00,
2013-03-03 17:02:00,37.0,26.0,-100.00,North,3,0.0,-999.0,63,0.00,,,-99.99,,2013-03-03 22:02:00,
2013-03-03 17:11:00,37.0,26.0,-100.00,North,3,0.0,-999.0,63,0.00,,,-99.99,,2013-03-03 22:11:00,
2013-03-03 17:22:00,37.0,26.0,-100.00,North,3,0.0,-999.0,63,0.00,,,-99.99,,2013-03-03 22:22:00,
2013-03-03 17:32:00,37.0,26.0,-100.00,North,3,0.0,-999.0,63,0.00,,,-99.99,,2013-03-03 22:32:00,
2013-03-03 17:42:00,37.0,26.0,-100.00,North,3,0.0,-999.0,63,0.00,,,-99.99,,2013-03-03 22:42:00,
2013-03-03 18:02:00,36.0,26.0,-100.00,North,1,0.0,-999.0,66,0.00,,,-99.99,,2013-03-03 23:02:00,
2013-03-03 18:11:00,36.0,26.0,-100.00,North,1,0.0,-999.0,66,0.00,,,-99.99,,2013-03-03 23:11:00,
2013-03-03 18:22:00,36.0,26.0,-100.00,North,1,0.0,-999.0,66,0.00,,,-99.99,,2013-03-03 23:22:00,
2013-03-03 18:32:00,36.0,26.0,-100.00,North,1,0.0,-999.0,66,0.00,,,-99.99,,2013-03-03 23:32:00,
2013-03-03 18:42:00,36.0,26.0,-100.00,North,1,0.0,-999.0,66,0.00,,,-99.99,,2013-03-03 23:42:00,
2013-03-03 19:02:00,34.0,25.0,-100.00,North,1,0.0,-999.0,68,0.00,,,0.07,,2013-03-04 00:02:00,
2013-03-03 19:11:00,34.0,25.0,-100.00,North,1,0.0,-999.0,68,0.00,,,0.07,,2013-03-04 00:11:00,
2013-03-03 19:22:00,34.0,25.0,-100.00,North,1,0.0,-999.0,68,0.00,,,0.07,,2013-03-04 00:22:00,
2013-03-03 19:32:00,34.0,25.0,-100.00,North,1,0.0,-999.0,68,0.00,,,0.07,,2013-03-04 00:32:00,
2013-03-03 19:42:00,34.0,25.0,-100.00,North,1,0.0,-999.0,68,0.00,,,0.07,,2013-03-04 00:42:00,
2013-03-03 20:02:00,33.0,25.0,-100.00,North,5,0.0,-999.0,72,0.00,,,0.07,,2013-03-04 01:02:00,
2013-03-03 20:12:00,33.0,25.0,-100.00,North,5,0.0,-999.0,72,0.00,,,0.07,,2013-03-04 01:12:00,
2013-03-03 20:22:00,33.0,25.0,-100.00,North,5,0.0,-999.0,72,0.00,,,0.07,,2013-03-04 01:22:00,
2013-03-03 20:32:00,33.0,25.0,-100.00,North,5,0.0,-999.0,72,0.00,,,0.07,,2013-03-04 01:32:00,
2013-03-03 20:42:00,33.0,25.0,-100.00,North,5,0.0,-999.0,72,0.00,,,0.07,,2013-03-04 01:42:00,
2013-03-03 21:01:00,32.0,24.0,-100.00,North,-999,0.0,-999.0,72,0.00,,,0.07,,2013-03-04 02:01:00,
2013-03-03 21:11:00,32.0,24.0,-100.00,North,-999,0.0,-999.0,72,0.00,,,0.07,,2013-03-04 02:11:00,
2013-03-03 21:22:00,32.0,24.0,-100.00,North,-999,0.0,-999.0,72,0.00,,,0.07,,2013-03-04 02:22:00,
2013-03-03 21:32:00,32.0,24.0,-100.00,North,-999,0.0,-999.0,72,0.00,,,0.07,,2013-03-04 02:32:00,
2013-03-03 21:42:00,32.0,24.0,-100.00,North,-999,0.0,-999.0,72,0.00,,,0.07,,2013-03-04 02:42:00,
2013-03-03 22:02:00,31.0,23.0,-100.00,North,-999,0.0,-999.0,71,0.00,,,0.07,,2013-03-04 03:02:00,
2013-03-03 22:11:00,31.0,23.0,-100.00,North,-999,0.0,-999.0,71,0.00,,,0.07,,2013-03-04 03:11:00,
2013-03-03 22:22:00,31.0,23.0,-100.00,North,-999,0.0,-999.0,71,0.00,,,0.07,,2013-03-04 03:22:00,
2013-03-03 22:32:00,31.0,23.0,-100.00,North,-999,0.0,-999.0,71,0.00,,,0.07,,2013-03-04 03:32:00,
2013-03-03 22:42:00,31.0,23.0,-100.00,North,-999,0.0,-999.0,71,0.00,,,0.07,,2013-03-04 03:42:00,
2013-03-03 23:02:00,30.0,22.0,-100.00,North,-999,0.0,-999.0,72,0.00,,,0.06,,2013-03-04 04:02:00,
2013-03-03 23:11:00,30.0,22.0,-100.00,North,-999,0.0,-999.0,72,0.00,,,0.06,,2013-03-04 04:11:00,
2013-03-03 23:22:00,30.0,22.0,-100.00,North,-999,0.0,-999.0,72,0.00,,,0.06,,2013-03-04 04:22:00,
2013-03-03 23:32:00,30.0,22.0,-100.00,North,-999,0.0,-999.0,72,0.00,,,0.06,,2013-03-04 04:32:00,
2013-03-03 23:42:00,30.0,22.0,-100.00,North,-999,0.0,-999.0,72,0.00,,,0.06,,2013-03-04 04:42:00,